[[{"header":{"parameterUnit":"m.s-1","parameterCategory":1,"la1":30.2991,"la2":30.254,"lo1":-89.0895,"lo2":-89.0444,"dy":0.0017,"dx":0.0017,"nx":28,"ny":28,"refTime":"2024-08-25T21:00:00:Z","depth":0,"parameterNumber":2,"parameterNumberName":"U-component_of_WINDS"},"data":[0,0,0,0,0,0,0,0,0,0,0,0,0,0,0,0,0,0,0,0,0,0,0,0,0,0,0,0,0,0,0,0,0,0,0,0,0,0,0,0,0,0,0,0,0,0,0,0,0,0,0,0,0,0,0,0,0,0,-5.2197,-5.2197,0,-5.2215,-5.2216,-5.2216,-5.2128,-5.2125,-5.2122,-5.212,-5.2139,-5.2142,-5.2145,0,0,0,0,0,0,0,0,0,0,0,0,0,-5.2087,-5.2089,-5.2197,-5.2197,-5.2198,-5.2215,-5.2216,-5.2216,-5.2128,-5.2125,-5.2122,-5.2119,-5.2139,-5.2142,-5.2145,0,0,0,0,0,0,0,0,0,0,0,0,0,-5.2123,-5.209,-5.2197,-5.2156,-5.2152,-5.2215,-5.2216,-5.2216,-5.2129,-5.2125,-5.2121,-5.2117,-5.2137,-5.2142,-5.2146,-5.225,0,0,-5.2159,-5.2161,0,0,0,0,0,0,0,0,-5.2121,-5.2127,-5.2162,-5.2159,-5.2155,-5.2165,-5.2184,-5.2227,-5.213,-5.2138,-5.212,-5.2116,-5.2151,-5.2154,-5.2166,-5.225,-5.2251,-5.216,-5.2162,-5.2164,-5.2165,0,0,0,0,0,0,0,-5.2118,-5.2126,-5.2204,-5.2162,-5.2158,-5.2137,-5.2138,-5.2192,-5.2166,-5.2137,-5.213,-5.2134,-5.2149,-5.2162,-5.2166,-5.2252,-5.2159,-5.2163,-5.2166,-5.2168,-5.2422,-5.2426,0,0,0,0,0,0,-5.2121,-5.2124,-5.2204,-5.2205,-5.2128,-5.2142,-5.2143,-5.2166,-5.2165,-5.2161,-5.2137,-5.213,-5.2157,-5.2161,-5.2166,-5.2287,-5.2164,-5.2168,-5.2171,-5.2418,-5.2423,-5.2428,0,0,0,0,0,0,-5.2119,-5.2129,-5.2203,-5.2163,-5.2171,-5.2148,-5.2174,-5.2168,-5.2181,-5.2165,-5.216,-5.2155,-5.2154,-5.216,-5.2229,-5.2287,-5.217,-5.2174,-5.2413,-5.242,-5.2425,-5.2531,0,0,0,0,0,0,-5.2117,-5.2129,-5.2168,-5.2164,-5.2173,-5.2266,-5.2178,-5.2171,-5.2189,-5.218,-5.2181,-5.2178,-5.2151,-5.2223,-5.2234,-5.2291,-5.2177,-5.2408,-5.2416,-5.2423,-5.2522,-5.254,-5.2555,0,0,0,0,0,-5.2113,-5.2197,-5.217,-5.2181,-5.2221,-5.2269,-5.2274,-5.2242,-5.2194,-5.2233,-5.2223,-5.2178,-5.2279,-5.2231,-5.2242,-5.2301,-5.2404,-5.2414,-5.2423,-5.2515,-5.2536,-5.2555,0,0,0,0,0,0,-5.2208,-5.2196,-5.2166,-5.2252,-5.2262,-5.2254,-5.2302,-5.2266,-5.229,-5.2281,-5.224,-5.2241,-5.2317,-5.2316,-5.2263,-5.2402,-5.2333,-5.2345,-5.2399,-5.242,-5.2436,-5.2434,-5.2181,0,0,0,0,0,-5.2239,-5.2279,-5.2266,-5.2343,-5.235,-5.2326,-5.2345,-5.232,-5.2329,-5.2333,-5.2328,-5.2339,-5.2373,-5.2396,-5.2427,-5.2522,-5.2521,-5.2568,-5.2584,-5.2598,-5.2609,-5.2659,-5.2679,-5.2458,-5.2458,-5.2458,0,0,-5.2303,-5.2301,-5.2329,-5.2362,-5.2367,-5.241,-5.233,-5.2378,-5.2409,-5.234,-5.2405,-5.2402,-5.2412,-5.2494,-5.253,-5.2496,-5.267,-5.261,-5.2621,-5.2624,-5.267,-5.2691,-5.271,-5.2465,-5.2463,-5.2462,0,0,-5.2442,-5.2445,-5.2509,-5.2516,-5.2525,-5.2508,-5.2524,-5.2522,-5.2517,-5.2582,-5.2531,-5.2568,-5.2628,-5.2637,-5.2649,-5.2792,-5.2752,-5.2804,-5.2889,-5.2939,-5.2956,-5.2971,-5.3022,-5.3041,-5.2814,-5.2815,-5.2815,0,-5.252,-5.2582,-5.2546,-5.2598,-5.2614,-5.2554,-5.2619,-5.2627,-5.2646,-5.2659,-5.262,-5.2694,-5.2696,-5.278,-5.2815,-5.2827,-5.2844,-5.2803,-5.2957,-5.2971,-5.2985,-5.3033,-5.3053,-5.2821,-5.282,-5.282,-5.2819,0,-5.2678,-5.2722,-5.2773,-5.2793,-5.2814,-5.2873,-5.2846,-5.2872,-5.2845,-5.2833,-5.29,-5.2901,-5.293,-5.2949,-5.2922,-5.3029,-5.3007,-5.2963,-5.2894,-5.3013,-5.3057,-5.3076,-5.283,-5.2828,-5.2826,-5.2824,0,0,-5.2876,-5.2876,-5.2895,-5.2903,-5.2909,-5.2943,-5.2998,-5.3027,-5.3051,-5.3066,-5.3112,-5.3165,-5.3124,-5.3138,-5.3113,-5.3156,-5.327,-5.3107,-5.3106,-5.3137,-5.3387,-5.342,-5.3442,-5.3243,-5.3246,-5.3249,-5.3386,0,-5.3012,-5.3107,-5.3076,-5.3172,-5.3212,-5.3156,-5.3205,-5.3214,-5.3204,-5.3237,-5.3226,-5.3264,-5.3208,-5.3216,-5.3257,-5.3247,-5.3319,-5.3237,-5.3285,-5.3287,-5.3284,-5.3465,-5.3499,-5.3629,-5.3403,-5.3406,-5.3408,0,-5.3182,-5.3204,-5.3304,-5.3304,-5.3319,-5.3364,-5.3388,-5.342,-5.343,-5.3419,-5.3436,-5.3402,-5.3457,-5.3388,-5.3463,-5.3408,-5.3426,-5.3425,-5.3429,-5.3431,-5.3355,-5.3472,-5.3669,-5.3688,-5.3435,-5.3433,-5.3431,0,-5.3316,-5.3371,-5.3438,-5.3447,-5.3448,-5.348,-5.3482,-5.3488,-5.3507,-5.3529,-5.3541,-5.357,-5.3585,-5.3608,-5.3582,-5.3534,-5.3661,-5.359,-5.3654,-5.3655,-5.3683,-5.3681,-5.3885,-5.3696,-5.3696,-5.3696,-5.3695,0,-5.347,-5.3534,-5.3498,-5.3539,-5.3609,-5.3574,-5.3643,-5.3639,-5.3645,-5.3684,-5.3638,-5.3676,-5.364,-5.3675,-5.3656,-5.3721,-5.3728,-5.3722,-5.3716,-5.3726,-5.3727,-5.3736,-5.3726,-5.3701,-5.37,-5.3699,-5.3698,0,-5.3631,-5.361,-5.3679,-5.3675,-5.3675,-5.3727,-5.3723,-5.3761,-5.3748,-5.3799,-5.3809,-5.3789,-5.3828,-5.3805,-5.3845,-5.3832,-5.3917,-5.3899,-5.3913,-5.3908,-5.3974,-5.3968,-5.419,-5.4218,-5.4012,-5.4014,-5.4016,0,-5.3731,-5.3778,-5.3779,-5.3802,-5.3807,-5.3845,-5.3864,-5.3832,-5.3855,-5.387,-5.3906,-5.3941,-5.3967,-5.4032,-5.4021,-5.4052,-5.4034,-5.411,-5.4038,-5.4046,-5.4034,-5.4031,-5.4036,-5.4124,-5.4126,-5.4128,-5.413,0,-5.3909,-5.3897,-5.3927,-5.3954,-5.3979,-5.3998,-5.4014,-5.4036,-5.4004,-5.4032,-5.407,-5.4091,-5.4132,-5.4167,-5.4193,-5.4195,-5.4158,-5.4153,-5.4169,-5.4179,-5.4186,-5.4183,-5.3952,-5.4148,-5.4146,-5.4145,-5.4144,-5.4143,-5.4042,-5.4081,-5.4088,-5.4123,-5.4132,-5.4148,-5.4184,-5.4176,-5.4208,-5.4238,-5.4217,-5.4263,-5.4272,-5.4303,-5.431,-5.4346,-5.4316,-5.434,-5.4345,-5.4352,-5.436,-5.4181,-5.4351,-5.4351,-5.435,-5.435,-5.4349,0,-5.4217,-5.4219,-5.4252,-5.4276,-5.4304,-5.4266,-5.4282,-5.4308,-5.4349,-5.436,-5.4387,-5.4432,-5.4466,-5.4459,-5.449,-5.452,-5.4504,-5.453,-5.4527,-5.4528,-5.4386,-5.4369,-5.4542,-5.4542,-5.4542,-5.4542,-5.4542,-5.4542,-5.4312,-5.4377,-5.4365,-5.4434,-5.4435,-5.448,-5.4492,-5.4507,-5.4515,-5.4568,-5.4596,-5.4591,-5.4595,-5.4626,-5.4656,-5.4653,-5.4666,-5.4698,-5.4689,-5.4557,-5.4538,-5.4519,-5.4503,-5.4701,-5.4702,-5.4827,-5.4828,-5.4829]},{"header":{"parameterUnit":"m.s-1","parameterCategory":1,"la1":30.2991,"la2":30.254,"lo1":-89.0895,"lo2":-89.0444,"dy":0.0017,"dx":0.0017,"nx":28,"ny":28,"refTime":"2024-08-25T21:00:00:Z","depth":0,"parameterNumber":3,"parameterNumberName":"V-component_of_WINDS"},"data":[0,0,0,0,0,0,0,0,0,0,0,0,0,0,0,0,0,0,0,0,0,0,0,0,0,0,0,0,0,0,0,0,0,0,0,0,0,0,0,0,0,0,0,0,0,0,0,0,0,0,0,0,0,0,0,0,0,0,-1.0229,-1.0229,0,-1.0182,-1.0182,-1.0181,-1.0113,-1.0111,-1.011,-1.0109,-1.0063,-1.0063,-1.0063,0,0,0,0,0,0,0,0,0,0,0,0,0,-1.0262,-1.0262,-1.0229,-1.0229,-1.0228,-1.0182,-1.0182,-1.0181,-1.0113,-1.0111,-1.011,-1.0109,-1.0063,-1.0063,-1.0063,0,0,0,0,0,0,0,0,0,0,0,0,0,-1.0235,-1.0262,-1.023,-1.0189,-1.0184,-1.0182,-1.0182,-1.0181,-1.0113,-1.0111,-1.011,-1.0108,-1.0063,-1.0063,-1.0063,-1.0098,0,0,-1.0062,-1.0062,0,0,0,0,0,0,0,0,-1.0236,-1.0234,-1.0195,-1.0191,-1.0187,-1.0151,-1.0176,-1.0153,-1.0114,-1.014,-1.0109,-1.0107,-1.0094,-1.0091,-1.0086,-1.0095,-1.0094,-1.0062,-1.0062,-1.0062,-1.0062,0,0,0,0,0,0,0,-1.0238,-1.0235,-1.0211,-1.0195,-1.019,-1.0173,-1.0167,-1.0171,-1.0128,-1.0138,-1.0133,-1.0128,-1.0091,-1.0087,-1.0085,-1.0093,-1.0062,-1.0062,-1.0062,-1.0062,-1.0128,-1.013,0,0,0,0,0,0,-1.0246,-1.0237,-1.0212,-1.0209,-1.0208,-1.0174,-1.0167,-1.0165,-1.0128,-1.012,-1.013,-1.0125,-1.0088,-1.0085,-1.0083,-1.0121,-1.0062,-1.0062,-1.0062,-1.0126,-1.0128,-1.013,0,0,0,0,0,0,-1.0247,-1.0244,-1.0214,-1.0222,-1.0217,-1.0175,-1.0173,-1.0165,-1.016,-1.0121,-1.0113,-1.0133,-1.0086,-1.0083,-1.0094,-1.0119,-1.0062,-1.0062,-1.0124,-1.0127,-1.0129,-1.0198,0,0,0,0,0,0,-1.0248,-1.0245,-1.0258,-1.0223,-1.0217,-1.0226,-1.0174,-1.0165,-1.0159,-1.0153,-1.0122,-1.0115,-1.0085,-1.0095,-1.0094,-1.0117,-1.0062,-1.0121,-1.0125,-1.0128,-1.0194,-1.0203,-1.0211,0,0,0,0,0,-1.025,-1.028,-1.0259,-1.0256,-1.0231,-1.0228,-1.0224,-1.0188,-1.0162,-1.0174,-1.0149,-1.0116,-1.0116,-1.0097,-1.0095,-1.0119,-1.012,-1.0124,-1.0128,-1.019,-1.0201,-1.0211,0,0,0,0,0,0,-1.032,-1.0274,-1.0251,-1.027,-1.0253,-1.0216,-1.0231,-1.0201,-1.0192,-1.0186,-1.0142,-1.0136,-1.0152,-1.0136,-1.0116,-1.015,-1.0113,-1.0117,-1.016,-1.0171,-1.0179,-1.0183,-1.0061,0,0,0,0,0,-1.0337,-1.0337,-1.0298,-1.0319,-1.0312,-1.0273,-1.027,-1.0243,-1.0224,-1.0217,-1.0193,-1.0176,-1.0172,-1.017,-1.0165,-1.0191,-1.0183,-1.0206,-1.0215,-1.0222,-1.0227,-1.0239,-1.0249,-1.0144,-1.0144,-1.0144,0,0,-1.0374,-1.0349,-1.0352,-1.0332,-1.0316,-1.0318,-1.0267,-1.0271,-1.0272,-1.0218,-1.0226,-1.0208,-1.0187,-1.0205,-1.0213,-1.0193,-1.0254,-1.0228,-1.0234,-1.0234,-1.0245,-1.0255,-1.0264,-1.0147,-1.0146,-1.0146,0,0,-1.0442,-1.0423,-1.0438,-1.0422,-1.0398,-1.0372,-1.0376,-1.0343,-1.0328,-1.0336,-1.0295,-1.0296,-1.029,-1.0276,-1.0268,-1.033,-1.0299,-1.0329,-1.0375,-1.0388,-1.0397,-1.0404,-1.0426,-1.0434,-1.0334,-1.0334,-1.0334,0,-1.049,-1.0491,-1.045,-1.0456,-1.0449,-1.0398,-1.0414,-1.0401,-1.0376,-1.0373,-1.035,-1.0341,-1.0323,-1.0338,-1.0353,-1.0349,-1.0352,-1.0333,-1.0398,-1.0405,-1.0411,-1.0432,-1.0441,-1.0338,-1.0337,-1.0337,-1.0336,0,-1.0552,-1.0553,-1.0568,-1.0545,-1.0539,-1.055,-1.0511,-1.0511,-1.0484,-1.046,-1.0469,-1.0445,-1.0434,-1.0435,-1.041,-1.0447,-1.0435,-1.0406,-1.0368,-1.0426,-1.0445,-1.0452,-1.0343,-1.0342,-1.0341,-1.034,0,0,-1.0664,-1.0616,-1.0623,-1.0611,-1.058,-1.0581,-1.0589,-1.0577,-1.0577,-1.0562,-1.0568,-1.0564,-1.0537,-1.0528,-1.0501,-1.0512,-1.0563,-1.0482,-1.0481,-1.0498,-1.0602,-1.0624,-1.0634,-1.0542,-1.0543,-1.0544,-1.0604,0,-1.0725,-1.0737,-1.07,-1.0721,-1.0722,-1.0673,-1.0681,-1.0663,-1.0641,-1.0638,-1.0614,-1.0612,-1.0576,-1.0571,-1.0579,-1.0555,-1.0583,-1.055,-1.0548,-1.0549,-1.0556,-1.0644,-1.0667,-1.0725,-1.0611,-1.0612,-1.0613,0,-1.0799,-1.0787,-1.0808,-1.0775,-1.0774,-1.0781,-1.0767,-1.0765,-1.0744,-1.0727,-1.0717,-1.0684,-1.0691,-1.0654,-1.0662,-1.0641,-1.0638,-1.0625,-1.0627,-1.0626,-1.0585,-1.0646,-1.0742,-1.0751,-1.0624,-1.0623,-1.0622,0,-1.0879,-1.0867,-1.0878,-1.087,-1.0832,-1.0838,-1.0823,-1.08,-1.0795,-1.0782,-1.0779,-1.0768,-1.0762,-1.0754,-1.072,-1.0696,-1.0733,-1.0692,-1.072,-1.0721,-1.073,-1.073,-1.0828,-1.0728,-1.0727,-1.0727,-1.0727,0,-1.0952,-1.0967,-1.0913,-1.092,-1.0935,-1.0893,-1.0909,-1.0889,-1.0869,-1.0871,-1.0829,-1.0832,-1.0786,-1.0785,-1.0758,-1.0769,-1.0767,-1.0754,-1.0747,-1.0758,-1.076,-1.0756,-1.0751,-1.073,-1.0729,-1.0729,-1.0728,0,-1.1044,-1.1008,-1.1017,-1.098,-1.0971,-1.0984,-1.0953,-1.0958,-1.0932,-1.0936,-1.0935,-1.0896,-1.0891,-1.0856,-1.0844,-1.0826,-1.0848,-1.0833,-1.0855,-1.0851,-1.088,-1.0878,-1.0979,-1.099,-1.0883,-1.0884,-1.0885,0,-1.1093,-1.1103,-1.1067,-1.1065,-1.1051,-1.1049,-1.1043,-1.1002,-1.0998,-1.0974,-1.0982,-1.0974,-1.0966,-1.0962,-1.0933,-1.0924,-1.0908,-1.0944,-1.0907,-1.0918,-1.0909,-1.0909,-1.091,-1.0953,-1.0954,-1.0955,-1.0956,0,-1.1184,-1.1166,-1.1159,-1.1146,-1.114,-1.1128,-1.1114,-1.1115,-1.1069,-1.1067,-1.1061,-1.1055,-1.1042,-1.1035,-1.1021,-1.1005,-1.0974,-1.0968,-1.0974,-1.0986,-1.0998,-1.0992,-1.0878,-1.0966,-1.0965,-1.0964,-1.0964,-1.0963,-1.1256,-1.1263,-1.1238,-1.1232,-1.1216,-1.1204,-1.1206,-1.1181,-1.1176,-1.1162,-1.1138,-1.1136,-1.1114,-1.1091,-1.1079,-1.1077,-1.1058,-1.1067,-1.1069,-1.1072,-1.1078,-1.0998,-1.1074,-1.1074,-1.1074,-1.1074,-1.1073,0,-1.1346,-1.1327,-1.1322,-1.1302,-1.1297,-1.1266,-1.1248,-1.1247,-1.1245,-1.1227,-1.1219,-1.1214,-1.1206,-1.1177,-1.1166,-1.1171,-1.1156,-1.117,-1.1169,-1.1166,-1.1095,-1.1091,-1.1182,-1.1182,-1.1182,-1.1182,-1.1182,-1.1182,-1.1391,-1.1401,-1.138,-1.1381,-1.1363,-1.136,-1.1353,-1.1341,-1.1326,-1.1321,-1.1314,-1.1295,-1.1272,-1.126,-1.1252,-1.1243,-1.1242,-1.126,-1.1247,-1.1182,-1.1171,-1.1161,-1.1157,-1.126,-1.1261,-1.1318,-1.1319,-1.1319]}]]